Helicity
222 277 287 185 159 163 145 130 112 132 131 81 66 13 2 30 25 78 34 46 32 8 10 50 104 121 133 152 183 236 307 370 435 444 474 455 415 401 379 326 253 229 190 175
266 207 212 166 144 132 145 126 112 61 55 105 75 9 20 61 48 44 53 35 26 38 55 90 148 154 138 139 164 228 296 352 405 464 462 418 420 379 309 269 251 222 210 178
212 236 116 187 158 159 145 127 111 87 85 74 53 -18 26 70 74 50 50 63 39 48 105 171 179 166 164 156 167 223 276 348 402 473 500 505 436 400 306 250 259 244 207 178
194 162 138 175 156 151 122 102 95 109 120 139 146 -68 -11 97 93 76 73 80 13 41 64 155 232 210 178 166 192 231 249 264 297 341 387 335 299 278 213 234 231 227 197 171
218 157 140 143 123 97 138 97 70 97 137 126 120 141 -156 -62 98 72 82 115 88 61 79 157 234 218 208 210 220 235 252 250 247 269 302 329 333 305 274 248 241 216 192 164
175 129 163 168 92 135 166 110 115 146 175 198 131 177 -158 -26 55 62 70 91 85 89 140 211 337 317 302 283 274 269 260 253 236 236 245 261 290 269 255 210 203 182 166 159
196 159 258 207 146 126 116 179 261 251 290 288 89 137 127 67 93 50 57 95 101 133 227 314 365 337 309 287 301 304 288 275 240 236 231 242 243 212 185 159 158 155 151 142
204 203 228 281 245 263 225 206 335 302 302 174 70 133 132 -9 -8 27 183 51 92 164 205 290 372 387 364 328 337 330 320 320 281 257 249 238 223 197 178 159 164 168 160 151
180 192 188 164 227 294 245 154 106 258 219 176 140 114 36 44 41 30 28 73 175 154 219 286 420 435 397 364 354 349 370 351 317 287 263 247 220 205 188 189 189 176 164 150
103 118 100 43 17 84 132 131 170 191 179 172 120 77 27 24 22 91 70 43 156 233 258 333 414 468 408 391 389 375 347 321 310 294 261 243 225 218 210 201 191 182 169 165
104 95 19 93 131 174 110 104 212 176 181 198 93 1 -49 -64 1 58 135 114 170 221 332 427 494 459 415 402 371 380 358 341 315 287 273 268 249 236 222 212 193 181 176 173
149 133 81 129 121 117 158 136 175 154 207 175 75 -71 -13 -63 1 40 147 145 136 190 278 374 394 364 350 365 357 361 338 314 286 277 270 262 246 232 230 208 192 181 187 177
131 33 75 63 87 82 146 18 12 -33 -30 -58 -17 64 35 38 40 63 158 165 201 213 269 304 325 304 331 334 332 309 285 287 275 274 267 257 243 231 212 201 192 193 187 176
110 85 222 213 109 32 96 129 79 86 79 127 119 225 -19 209 161 29 119 154 199 205 218 253 269 273 288 283 271 259 269 259 258 258 247 239 220 207 200 195 198 196 182 188
165 193 253 301 246 75 89 -5 106 250 141 135 43 156 98 46 95 81 78 196 196 160 164 205 241 244 246 248 233 239 247 247 243 241 231 214 209 204 201 209 207 198 195 181
170 188 221 319 286 218 96 23 34 87 51 -4 46 186 150 285 218 98 128 121 118 112 149 178 206 224 212 207 218 239 247 234 220 216 210 201 199 204 208 211 203 202 194 168
191 275 315 343 37 -25 69 117 67 222 145 177 280 411 296 172 127 164 73 69 80 93 143 175 189 186 186 206 248 236 216 213 211 204 188 186 192 205 214 206 211 196 163 147
196 151 198 240 67 50 173 161 159 347 364 328 295 205 167 78 51 78 80 69 60 94 123 146 181 202 217 230 224 238 214 196 194 194 185 184 200 206 206 215 192 160 154 154
200 90 88 101 98 67 87 151 199 158 236 191 98 163 103 73 99 112 97 59 100 133 150 179 196 223 221 222 221 239 216 206 195 173 174 190 193 206 200 181 179 171 159 133
112 101 53 33 61 43 39 5 9 94 87 103 195 128 -6 50 47 33 38 69 132 184 201 229 228 236 246 210 239 248 206 193 175 165 180 188 198 185 186 191 190 136 119 109
40 34 52 23 28 64 43 61 31 15 -5 12 15 -5 60 59 66 86 118 188 175 181 204 215 213 221 219 239 260 246 201 171 163 182 197 198 199 202 195 173 136 123 116 109
22 4 9 8 -2 18 51 41 42 32 51 55 30 57 136 115 125 160 188 197 200 223 221 227 278 268 237 234 257 222 196 173 193 201 213 219 214 193 161 160 135 121 116 111
9 40 14 27 29 4 15 5 7 13 10 12 -2 37 128 127 135 154 193 217 230 233 243 240 283 280 239 220 211 213 172 193 215 231 225 214 185 178 159 142 127 114 107 97
11 23 24 -8 -0 34 35 33 55 54 32 27 20 42 109 177 156 183 194 205 231 226 236 238 277 271 239 208 216 215 202 209 219 227 211 188 169 154 139 124 108 98 94 103
10 33 26 40 16 35 10 51 46 69 52 70 83 83 129 193 160 150 175 193 200 211 214 208 216 220 217 221 229 199 192 200 224 200 175 165 150 141 128 112 89 98 96 102
39 37 35 17 31 29 30 37 41 68 63 59 96 118 121 130 133 140 156 134 140 156 144 185 194 210 196 213 216 203 182 168 173 174 159 144 135 126 111 107 112 102 102 102
Wind_Speed
39 49 52 49 45 60 74 74 72 67 65 76 89 101 93 87 87 94 96 94 89 89 82 67 49 42 38 37 34 26 18 14 15 18 18 16 13 12 19 22 23 26 28 29
51 62 50 51 52 63 71 82 90 84 76 79 89 113 101 93 97 86 84 88 88 76 70 61 48 41 39 36 34 26 19 13 15 18 20 18 10 15 16 19 23 26 26 29
55 54 39 49 56 61 68 75 78 85 81 87 95 124 107 91 93 91 82 78 83 67 54 58 50 44 37 31 30 25 15 13 13 11 10 9 10 12 16 18 21 24 26 30
63 53 55 60 60 55 75 62 69 77 77 89 62 111 91 75 86 84 80 76 76 59 54 49 48 39 33 29 24 18 9 7 9 10 11 10 11 11 16 15 16 21 27 31
57 52 50 59 58 49 66 58 60 65 77 89 94 95 93 66 91 87 76 77 75 66 55 46 46 39 32 26 18 14 8 6 9 9 8 7 7 9 7 9 14 21 27 33
55 47 49 53 51 50 51 61 66 62 73 106 92 86 118 90 86 82 75 78 75 70 57 50 48 39 30 26 16 11 9 8 7 6 5 5 4 2 2 8 14 22 29 36
58 57 55 49 56 53 56 60 74 78 82 98 69 81 114 76 67 72 72 75 73 67 52 43 44 38 30 25 19 14 13 10 7 5 3 4 4 2 2 7 15 23 31 38
61 73 49 46 54 58 57 61 70 84 89 91 75 100 104 81 89 90 87 82 71 61 50 45 42 39 33 28 22 17 15 11 8 5 5 3 2 2 7 13 20 27 33 39
49 58 38 39 41 43 50 62 59 71 72 78 73 91 92 91 92 82 72 67 70 54 45 43 42 39 34 28 24 19 16 12 9 8 5 3 1 5 10 17 24 30 36 41
29 44 21 5 22 19 38 39 53 59 76 85 85 92 94 69 80 96 91 77 59 49 45 40 42 39 33 27 23 19 15 14 11 8 5 1 3 9 15 21 27 33 39 44
20 21 26 13 29 27 27 28 47 60 67 76 88 92 86 96 94 88 79 62 43 38 37 37 40 36 31 25 22 19 16 15 12 8 4 2 7 13 19 25 31 37 42 47
19 7 41 45 8 25 28 37 31 28 44 68 98 111 66 66 74 86 73 47 36 35 32 32 36 31 28 24 22 19 17 15 11 7 4 4 9 15 22 29 34 39 45 50
26 30 28 19 19 41 49 64 67 74 68 72 79 89 76 60 57 63 51 33 27 29 27 31 30 28 25 23 21 19 17 14 10 6 3 7 13 19 25 31 37 42 47 52
27 27 25 25 25 18 31 42 59 66 63 67 74 75 80 71 54 54 48 32 28 29 30 30 27 25 23 21 20 19 15 12 8 5 5 9 15 22 28 34 40 45 50 56
17 26 27 39 43 40 40 37 50 66 65 65 59 66 71 65 61 59 59 30 24 26 29 28 23 21 19 19 18 16 13 10 7 4 7 13 19 24 30 36 42 47 54 58
28 26 22 35 36 51 46 53 58 64 70 71 60 60 62 56 54 58 70 36 30 28 25 21 19 18 20 21 19 15 12 9 6 5 10 15 21 26 33 39 44 50 56 60
28 24 14 18 19 27 32 52 62 65 70 71 61 65 53 46 58 69 73 23 16 18 20 19 19 21 19 18 17 15 11 7 5 7 12 17 22 29 35 40 47 53 57 61
27 23 22 18 21 20 17 32 52 63 62 69 66 64 57 56 57 46 35 29 10 14 14 11 10 10 12 12 11 10 7 4 3 9 14 19 24 30 36 44 49 54 58 65
34 28 24 16 15 24 14 24 40 53 50 67 66 60 52 55 32 26 29 27 9 7 7 8 8 10 13 14 13 10 5 1 5 10 16 21 27 34 40 46 51 56 61 66
37 33 33 25 21 16 24 16 26 48 32 51 59 56 57 26 15 27 23 16 5 3 7 10 10 11 12 12 12 9 4 2 8 13 18 24 30 35 42 48 53 57 62 67
36 33 37 35 30 29 25 24 27 16 18 36 44 41 24 22 33 14 9 8 6 6 10 9 10 12 11 10 10 6 4 7 12 16 22 27 33 39 45 49 54 60 64 69
28 34 36 35 33 28 32 29 26 25 27 30 28 17 3 7 9 7 7 5 6 9 9 10 11 9 9 9 10 7 8 12 15 19 26 32 38 42 46 52 57 62 67 73
29 22 27 18 27 31 33 29 28 29 29 29 21 12 13 9 6 8 9 8 7 9 11 11 13 13 12 11 10 9 12 14 19 25 30 35 39 44 50 55 61 67 70 75
24 18 27 28 30 37 30 27 28 27 24 23 23 21 17 17 11 12 12 13 14 14 14 16 18 16 14 13 14 14 15 18 22 28 33 37 41 47 52 56 61 68 73 77
23 14 25 34 45 32 26 29 24 23 23 24 20 17 21 23 18 17 16 16 17 18 19 20 21 19 18 17 17 19 20 22 27 31 34 39 45 50 55 58 62 67 68 72
17 24 31 38 30 25 26 13 17 18 18 20 22 22 17 18 22 22 20 19 21 22 22 22 22 22 21 21 21 23 25 26 29 34 38 43 49 54 58 62 66 63 67 73
Wind_Direction
297 286 279 282 282 284 283 282 282 280 281 279 272 270 272 272 270 267 264 263 266 264 269 275 276 273 280 283 285 290 277 243 223 243 259 276 288 313 324 333 346 351 356 357
292 283 288 288 286 282 280 279 275 278 281 280 276 268 270 272 267 268 268 265 265 270 269 269 269 270 275 280 282 286 276 244 235 244 259 271 276 309 328 343 349 356 1 356
282 296 289 286 285 282 280 277 277 276 280 278 278 266 269 271 267 266 266 266 264 266 267 265 262 265 271 276 279 282 272 246 235 213 234 259 298 313 323 339 348 358 359 357
289 285 282 286 285 281 279 281 278 276 275 271 280 267 269 273 266 264 265 262 260 260 263 263 257 258 263 271 279 279 266 230 195 190 194 215 256 277 308 331 357 1 360 359
293 295 285 277 279 281 282 285 280 277 273 274 267 269 267 272 264 264 266 264 259 258 256 256 250 251 255 261 267 269 250 203 179 181 193 234 267 299 327 356 0 2 359 356
289 298 292 285 277 278 289 282 281 279 274 266 266 264 262 266 267 268 268 263 261 258 254 253 248 247 245 254 251 247 225 216 181 188 212 220 207 208 334 353 355 353 352 351
296 285 293 288 282 278 272 275 275 271 265 266 271 264 261 269 271 269 269 265 262 256 248 234 234 235 236 235 234 231 218 222 216 204 194 171 158 144 30 360 351 348 345 345
299 295 278 280 273 277 265 262 268 269 268 271 268 263 262 270 266 264 264 262 264 256 243 229 224 228 229 227 224 222 217 212 206 187 159 143 125 24 356 349 346 345 344 345
312 305 306 293 273 267 275 262 263 273 274 275 269 267 269 263 259 258 260 263 259 250 240 227 222 226 221 221 221 213 212 215 199 170 158 151 20 353 344 345 347 345 345 344
338 319 327 270 177 219 265 275 272 266 269 270 269 265 261 263 253 246 251 255 255 247 240 230 222 218 222 222 223 224 215 201 188 175 182 197 336 342 344 343 343 344 343 344
163 192 197 116 185 194 197 232 275 275 269 269 266 259 255 246 245 247 247 256 254 240 230 222 220 218 215 215 218 217 202 192 193 192 197 276 331 337 340 341 341 342 343 342
167 169 222 219 200 206 210 211 217 232 270 267 254 243 263 265 257 244 244 255 246 232 227 215 207 204 203 209 214 210 202 198 202 203 218 306 332 337 338 339 341 341 341 342
154 196 220 212 203 196 207 212 210 213 218 213 229 236 247 264 275 250 244 241 228 221 212 207 200 199 207 210 210 202 199 197 200 204 245 314 328 333 336 339 339 340 341 341
158 196 197 213 197 121 179 189 195 198 195 195 205 221 226 240 251 250 238 229 220 218 207 206 207 210 211 207 197 192 195 196 197 224 285 317 327 332 335 338 339 340 341 340
157 216 214 229 234 224 215 206 181 187 191 184 196 203 218 229 245 233 228 225 211 206 208 208 199 197 199 194 195 194 191 190 201 245 302 319 328 333 336 338 339 340 340 340
188 217 222 241 240 231 210 211 194 193 199 206 215 221 228 226 222 215 200 219 215 211 206 200 201 189 178 174 178 183 189 196 211 275 308 321 328 332 335 337 338 339 339 340
185 206 195 240 209 181 186 203 200 197 193 199 188 200 205 219 203 186 175 213 165 168 165 171 169 164 170 175 178 180 182 192 246 297 316 324 330 333 336 338 338 338 339 339
184 182 169 187 158 173 158 166 177 184 190 197 193 195 196 194 190 205 219 222 164 150 157 175 176 188 189 179 174 170 172 190 277 314 323 329 333 335 337 338 338 339 340 339
171 195 227 204 206 161 191 160 154 140 160 165 167 178 192 190 214 227 234 242 248 140 150 155 153 145 145 150 150 149 155 191 322 325 329 333 336 336 337 337 339 340 339 339
175 179 210 251 238 260 159 216 203 143 194 155 171 182 166 240 250 246 258 270 285 87 113 122 127 128 131 136 137 135 129 10 333 335 337 339 340 340 339 339 340 340 340 340
194 176 180 231 236 216 241 250 222 140 304 230 221 187 253 265 261 282 297 322 340 60 88 94 105 120 123 120 120 108 59 356 350 347 345 344 343 342 342 341 341 340 341 341
116 216 233 247 258 298 285 284 296 285 293 287 283 294 300 321 329 332 307 340 30 63 67 80 93 91 88 98 99 69 20 3 0 354 347 344 344 343 344 343 342 342 342 341
324 0 337 43 337 333 346 352 336 319 327 324 343 27 81 67 31 31 35 35 35 51 64 67 84 80 71 72 67 39 20 12 360 351 348 346 347 347 345 344 343 342 343 342
339 353 339 339 326 280 301 336 319 306 338 353 27 55 67 79 61 57 54 54 58 54 65 75 81 77 65 47 35 36 21 8 1 355 351 350 349 347 347 347 346 344 343 342
320 5 325 300 268 290 284 290 325 352 18 24 16 32 67 77 66 66 60 56 58 63 66 72 76 71 59 48 37 26 20 12 2 357 355 352 350 348 347 347 346 345 346 345
313 303 297 296 322 314 340 352 14 14 20 31 53 57 46 62 74 72 64 59 66 69 69 66 67 67 62 50 34 21 14 10 5 358 354 352 348 347 346 345 345 349 348 347